Location: Newark
(12.4436°N, 0.6167°W)
Time: 20:41:46
(UTC+00:00)

Vanguard 1 - Pass Details

Date: 16 December 2019
Orbit: 651 x 3833 km, 34.2° (Epoch: 25 January)

Event Time Altitude Azimuth Distance (km) Brightness Sun altitude
Rises 02:29:02 0° 258° (WSW) 6,510 - -52.5°
Reaches altitude 10° 02:32:59 10° 263° (W) 5,839 - -51.6°
Maximum altitude 02:52:31 54° 337° (NNW) 4,280 - -47.2°
Exits shadow 02:55:17 52° 355° (N) 4,369 12.9 -46.6°
Drops below altitude 10° 03:15:02 10° 51° (NE) 6,536 14.5 -42.1°
Sets 03:19:54 0° 56° (ENE) 7,282 14.9 -40.9°
